| time (UTC) | temp F | wind direction | speed MPH | gust MPH | rain 1hr in | rain 24hr in | rain mn in | humidity % | barometer mb |
| 20260504120318 | 42 | 252 | 0.0 | 0.0 | 0.00 | 0.00 | 0.00 | 73 | 1012.8 |
| 20260504110242 | 42 | 248 | 0.0 | 0.0 | 0.00 | 0.00 | 0.00 | 69 | 1012.3 |
| 20260504100200 | 43 | 262 | 0.0 | 0.0 | 0.00 | 0.00 | 0.00 | 66 | 1011.6 |
| 20260504090122 | 46 | 253 | 0.0 | 0.0 | 0.00 | 0.00 | 0.00 | 61 | 1011.4 |
| 20260504081552 | 48 | 251 | 0.0 | 0.0 | 0.00 | 0.00 | 0.00 | 57 | 1011.1 |
| 20260504081048 | 48 | 245 | 0.0 | 0.0 | 0.00 | 0.00 | 0.00 | 56 | 1011.2 |
| 20260504080545 | 48 | 257 | 0.0 | 0.0 | 0.00 | 0.00 | 0.00 | 56 | 1011.1 |
| 20260504050358 | 55 | 251 | 0.0 | 0.0 | 0.00 | 0.00 | 0.00 | 40 | 1010.3 |
| 20260504045855 | 55 | 242 | 0.0 | 0.0 | 0.00 | 0.00 | 0.00 | 41 | 1010.2 |
| 20260504045350 | 55 | 245 | 0.0 | 0.0 | 0.00 | 0.00 | 0.00 | 40 | 1010.3 |
| 20260504044847 | 56 | 250 | 0.0 | 0.0 | 0.00 | 0.00 | 0.00 | 39 | 1010.3 |
| 20260504044344 | 56 | 284 | 0.0 | 0.0 | 0.00 | 0.00 | 0.00 | 39 | 1010.3 |
| 20260504043842 | 57 | 247 | 0.0 | 0.0 | 0.00 | 0.00 | 0.00 | 38 | 1010.3 |
| 20260504043338 | 57 | 239 | 0.0 | 0.0 | 0.00 | 0.00 | 0.00 | 37 | 1010.2 |
| 20260504042836 | 58 | 242 | 0.0 | 0.0 | 0.00 | 0.00 | 0.00 | 36 | 1010.1 |
| 20260504042332 | 58 | 238 | 0.0 | 0.0 | 0.00 | 0.00 | 0.00 | 35 | 1010.1 |
| 20260504041828 | 59 | 248 | 0.0 | 0.0 | 0.00 | 0.00 | 0.00 | 35 | 1010.0 |
| 20260504041325 | 60 | 241 | 0.0 | 0.0 | 0.00 | 0.00 | 0.00 | 34 | 1010.0 |
| 20260504040821 | 60 | 248 | 0.0 | 0.0 | 0.00 | 0.00 | 0.00 | 33 | 1010.0 |
| 20260504040319 | 61 | 268 | 0.0 | 0.0 | 0.00 | 0.00 | 0.00 | 31 | 1009.9 |
| 20260504035814 | 60 | 265 | 0.0 | 0.0 | 0.00 | 0.00 | 0.00 | 31 | 1009.9 |
| 20260504035312 | 60 | 299 | 0.0 | 0.0 | 0.00 | 0.00 | 0.00 | 34 | 1010.1 |
| 20260504034809 | 61 | 273 | 0.0 | 0.0 | 0.00 | 0.00 | 0.00 | 33 | 1010.0 |
| 20260504034307 | 61 | 247 | 0.0 | 0.0 | 0.00 | 0.00 | 0.00 | 32 | 1010.0 |
| 20260504033804 | 60 | 265 | 0.0 | 1.0 | 0.00 | 0.00 | 0.00 | 32 | 1009.8 |
| 20260504033301 | 60 | 252 | 0.0 | 0.0 | 0.00 | 0.00 | 0.00 | 35 | 1009.8 |
| 20260504032758 | 60 | 243 | 0.0 | 0.0 | 0.00 | 0.00 | 0.00 | 35 | 1009.7 |
| 20260504032255 | 62 | 264 | 0.0 | 0.0 | 0.00 | 0.00 | 0.00 | 33 | 1009.6 |
| 20260504031751 | 62 | 243 | 0.0 | 0.0 | 0.00 | 0.00 | 0.00 | 33 | 1009.6 |
| 20260504031249 | 64 | 259 | 0.0 | 0.0 | 0.00 | 0.00 | 0.00 | 30 | 1009.6 |
| 20260504030745 | 64 | 236 | 0.0 | 0.0 | 0.00 | 0.00 | 0.00 | 29 | 1009.5 |
| 20260504030242 | 65 | 244 | 0.0 | 0.0 | 0.00 | 0.00 | 0.00 | 29 | 1009.5 |
| 20260504025738 | 66 | 251 | 0.0 | 0.0 | 0.00 | 0.00 | 0.00 | 28 | 1009.4 |
| 20260504025235 | 67 | 249 | 0.0 | 0.0 | 0.00 | 0.00 | 0.00 | 26 | 1009.5 |
| 20260504024732 | 67 | 249 | 0.0 | 0.0 | 0.00 | 0.00 | 0.00 | 26 | 1009.5 |
| 20260504024229 | 68 | 245 | 0.0 | 0.0 | 0.00 | 0.00 | 0.00 | 26 | 1009.6 |
| 20260504023726 | 68 | 257 | 1.0 | 1.0 | 0.00 | 0.00 | 0.00 | 25 | 1009.6 |
| 20260504023222 | 69 | 269 | 1.0 | 1.0 | 0.00 | 0.00 | 0.00 | 23 | 1009.7 |
| 20260504022718 | 69 | 274 | 2.0 | 2.0 | 0.00 | 0.00 | 0.00 | 23 | 1009.5 |
| 20260504022215 | 69 | 272 | 1.0 | 1.0 | 0.00 | 0.00 | 0.00 | 23 | 1009.6 |
| 20260504021712 | 70 | 278 | 0.0 | 1.0 | 0.00 | 0.00 | 0.00 | 22 | 1009.6 |
| 20260504021209 | 70 | 275 | 2.0 | 2.0 | 0.00 | 0.00 | 0.00 | 22 | 1009.5 |
| 20260504020706 | 71 | 286 | 3.0 | 5.0 | 0.00 | 0.00 | 0.00 | 21 | 1009.5 |
| 20260504020201 | 71 | 291 | 5.0 | 7.0 | 0.00 | 0.00 | 0.00 | 20 | 1009.5 |
| 20260504015658 | 71 | 303 | 3.0 | 5.0 | 0.00 | 0.00 | 0.00 | 20 | 1009.4 |
| 20260504015154 | 71 | 299 | 2.0 | 3.0 | 0.00 | 0.00 | 0.00 | 21 | 1009.5 |
| 20260504014650 | 72 | 271 | 6.0 | 8.0 | 0.00 | 0.00 | 0.00 | 19 | 1009.5 |
| 20260504014148 | 72 | 293 | 5.0 | 6.0 | 0.00 | 0.00 | 0.00 | 20 | 1009.2 |
| 20260504013646 | 72 | 311 | 7.0 | 10.0 | 0.00 | 0.00 | 0.00 | 19 | 1009.4 |
| 20260504013142 | 73 | 294 | 7.0 | 10.0 | 0.00 | 0.00 | 0.00 | 19 | 1009.4 |
| 20260504012639 | 73 | 271 | 8.0 | 9.0 | 0.00 | 0.00 | 0.00 | 19 | 1009.4 |
| 20260504012137 | 73 | 292 | 5.0 | 14.0 | 0.00 | 0.00 | 0.00 | 19 | 1009.2 |
| 20260504011634 | 73 | 263 | 8.0 | 10.0 | 0.00 | 0.00 | 0.00 | 18 | 1009.2 |
| 20260504011130 | 74 | 308 | 7.0 | 10.0 | 0.00 | 0.00 | 0.00 | 18 | 1009.2 |
| 20260504010626 | 74 | 285 | 7.0 | 8.0 | 0.00 | 0.00 | 0.00 | 18 | 1009.1 |
| 20260504010122 | 74 | 281 | 6.0 | 9.0 | 0.00 | 0.00 | 0.00 | 19 | 1009.4 |
| 20260504005619 | 73 | 299 | 3.0 | 3.0 | 0.00 | 0.00 | 0.00 | 18 | 1009.2 |
| 20260504005116 | 74 | 280 | 4.0 | 5.0 | 0.00 | 0.00 | 0.00 | 18 | 1008.9 |
| 20260504004614 | 74 | 277 | 7.0 | 14.0 | 0.00 | 0.00 | 0.00 | 18 | 1009.2 |
| 20260504004111 | 74 | 269 | 8.0 | 9.0 | 0.00 | 0.00 | 0.00 | 18 | 1009.1 |
| 20260504003607 | 75 | 308 | 6.0 | 8.0 | 0.00 | 0.00 | 0.00 | 17 | 1009.4 |
| 20260504003104 | 74 | 270 | 6.0 | 8.0 | 0.00 | 0.00 | 0.00 | 18 | 1009.2 |
| 20260504002601 | 74 | 264 | 7.0 | 8.0 | 0.00 | 0.00 | 0.00 | 18 | 1009.5 |
| 20260504002058 | 75 | 255 | 9.0 | 10.0 | 0.00 | 0.00 | 0.00 | 17 | 1009.2 |
| 20260504001556 | 75 | 256 | 5.0 | 6.0 | 0.00 | 0.00 | 0.00 | 18 | 1009.2 |
| 20260504001051 | 75 | 270 | 8.0 | 10.0 | 0.00 | 0.00 | 0.00 | 18 | 1009.1 |
| 20260504000549 | 76 | 294 | 7.0 | 9.0 | 0.00 | 0.00 | 0.00 | 18 | 1009.1 |
| 20260504000047 | 76 | 274 | 7.0 | 8.0 | 0.00 | 0.00 | 0.00 | 18 | 1008.8 |
| 20260503235545 | 75 | 279 | 6.0 | 7.0 | 0.00 | 0.00 | 0.00 | 19 | 1009.2 |
| 20260503235041 | 75 | 266 | 9.0 | 11.0 | 0.00 | 0.00 | 0.00 | 18 | 1009.1 |
| 20260503234538 | 76 | 257 | 7.0 | 10.0 | 0.00 | 0.00 | 0.00 | 18 | 1009.1 |
| 20260503234037 | 76 | 291 | 6.0 | 7.0 | 0.00 | 0.00 | 0.00 | 19 | 1009.0 |
| 20260503233533 | 75 | 284 | 4.0 | 8.0 | 0.00 | 0.00 | 0.00 | 18 | 1009.0 |
| 20260503233029 | 77 | 268 | 8.0 | 9.0 | 0.00 | 0.00 | 0.00 | 18 | 1009.2 |
| 20260503232526 | 75 | 294 | 3.0 | 5.0 | 0.00 | 0.00 | 0.00 | 20 | 1009.0 |
| 20260503232024 | 76 | 283 | 1.0 | 3.0 | 0.00 | 0.00 | 0.00 | 19 | 1009.1 |
| 20260503231522 | 75 | 280 | 8.0 | 10.0 | 0.00 | 0.00 | 0.00 | 19 | 1009.4 |
| 20260503231018 | 75 | 308 | 2.0 | 2.0 | 0.00 | 0.00 | 0.00 | 20 | 1009.1 |
| 20260503230514 | 75 | 276 | 7.0 | 8.0 | 0.00 | 0.00 | 0.00 | 19 | 1009.4 |
| 20260503230012 | 76 | 253 | 2.0 | 2.0 | 0.00 | 0.00 | 0.00 | 19 | 1009.2 |
| 20260503225509 | 76 | 300 | 4.0 | 7.0 | 0.00 | 0.00 | 0.00 | 19 | 1009.5 |
| 20260503225004 | 75 | 298 | 0.0 | 0.0 | 0.00 | 0.00 | 0.00 | 19 | 1009.5 |
| 20260503224502 | 75 | 279 | 7.0 | 9.0 | 0.00 | 0.00 | 0.00 | 18 | 1009.6 |
| 20260503223959 | 76 | 189 | 2.0 | 5.0 | 0.00 | 0.00 | 0.00 | 19 | 1009.6 |
| 20260503223457 | 75 | 254 | 0.0 | 0.0 | 0.00 | 0.00 | 0.00 | 20 | 1009.6 |
| 20260503222952 | 75 | 350 | 0.0 | 0.0 | 0.00 | 0.00 | 0.00 | 18 | 1009.7 |
| 20260503222451 | 75 | 310 | 9.0 | 11.0 | 0.00 | 0.00 | 0.00 | 19 | 1009.7 |
| 20260503221949 | 75 | 293 | 1.0 | 5.0 | 0.00 | 0.00 | 0.00 | 19 | 1009.7 |
| 20260503221447 | 75 | 296 | 2.0 | 5.0 | 0.00 | 0.00 | 0.00 | 18 | 1009.8 |
| 20260503220943 | 75 | 253 | 11.0 | 13.0 | 0.00 | 0.00 | 0.00 | 18 | 1009.8 |
| 20260503220439 | 75 | 288 | 5.0 | 9.0 | 0.00 | 0.00 | 0.00 | 18 | 1010.0 |
| 20260503215937 | 76 | 274 | 4.0 | 6.0 | 0.00 | 0.00 | 0.00 | 18 | 1010.0 |
| 20260503215433 | 77 | 318 | 4.0 | 6.0 | 0.00 | 0.00 | 0.00 | 19 | 1010.0 |
| 20260503214931 | 77 | 230 | 0.0 | 0.0 | 0.00 | 0.00 | 0.00 | 18 | 1010.1 |
| 20260503214429 | 75 | 245 | 0.0 | 0.0 | 0.00 | 0.00 | 0.00 | 20 | 1010.1 |
| 20260503213926 | 77 | 272 | 3.0 | 3.0 | 0.00 | 0.00 | 0.00 | 18 | 1010.2 |
| 20260503213424 | 76 | 288 | 0.0 | 0.0 | 0.00 | 0.00 | 0.00 | 18 | 1010.3 |
| 20260503212920 | 74 | 284 | 3.0 | 3.0 | 0.00 | 0.00 | 0.00 | 18 | 1010.6 |
| 20260503212418 | 74 | 303 | 3.0 | 3.0 | 0.00 | 0.00 | 0.00 | 19 | 1010.7 |
| 20260503211915 | 73 | 288 | 6.0 | 7.0 | 0.00 | 0.00 | 0.00 | 20 | 1010.6 |
| 20260503211412 | 72 | 68 | 0.0 | 1.0 | 0.00 | 0.00 | 0.00 | 21 | 1010.9 |
| 20260503210907 | 74 | 269 | 9.0 | 11.0 | 0.00 | 0.00 | 0.00 | 20 | 1010.9 |
| 20260503210404 | 73 | 270 | 8.0 | 9.0 | 0.00 | 0.00 | 0.00 | 19 | 1011.0 |
| 20260503205859 | 73 | 258 | 3.0 | 5.0 | 0.00 | 0.00 | 0.00 | 21 | 1011.2 |
| 20260503205356 | 74 | 289 | 3.0 | 5.0 | 0.00 | 0.00 | 0.00 | 21 | 1011.2 |
| 20260503204852 | 72 | 290 | 6.0 | 7.0 | 0.00 | 0.00 | 0.00 | 21 | 1011.2 |
| 20260503204349 | 72 | 252 | 0.0 | 0.0 | 0.00 | 0.00 | 0.00 | 22 | 1011.4 |
| 20260503203847 | 74 | 292 | 6.0 | 9.0 | 0.00 | 0.00 | 0.00 | 21 | 1011.6 |
| 20260503203344 | 71 | 280 | 3.0 | 3.0 | 0.00 | 0.00 | 0.00 | 22 | 1011.4 |
| 20260503202841 | 72 | 237 | 1.0 | 5.0 | 0.00 | 0.00 | 0.00 | 21 | 1011.6 |
| 20260503202339 | 70 | 266 | 3.0 | 5.0 | 0.00 | 0.00 | 0.00 | 22 | 1012.0 |
| 20260503201838 | 72 | 275 | 6.0 | 7.0 | 0.00 | 0.00 | 0.00 | 22 | 1012.0 |
| 20260503201334 | 71 | 279 | 5.0 | 6.0 | 0.00 | 0.00 | 0.00 | 21 | 1012.0 |
| 20260503200832 | 71 | 296 | 7.0 | 7.0 | 0.00 | 0.00 | 0.00 | 21 | 1012.1 |
| 20260503200327 | 71 | 290 | 7.0 | 9.0 | 0.00 | 0.00 | 0.00 | 23 | 1012.3 |
| 20260503195825 | 71 | 279 | 4.0 | 5.0 | 0.00 | 0.00 | 0.00 | 22 | 1012.3 |
| 20260503195321 | 71 | 291 | 5.0 | 6.0 | 0.00 | 0.00 | 0.00 | 22 | 1012.4 |
| 20260503194819 | 69 | 271 | 12.0 | 13.0 | 0.00 | 0.00 | 0.00 | 22 | 1012.6 |
| 20260503194314 | 69 | 267 | 5.0 | 6.0 | 0.00 | 0.00 | 0.00 | 23 | 1012.7 |
| 20260503193811 | 69 | 284 | 2.0 | 3.0 | 0.00 | 0.00 | 0.00 | 24 | 1012.8 |
| 20260503193307 | 68 | 292 | 7.0 | 9.0 | 0.00 | 0.00 | 0.00 | 25 | 1012.8 |
| 20260503192803 | 69 | 277 | 12.0 | 14.0 | 0.00 | 0.00 | 0.00 | 25 | 1013.1 |
| 20260503192258 | 67 | 283 | 3.0 | 3.0 | 0.00 | 0.00 | 0.00 | 25 | 1013.2 |
| 20260503191755 | 68 | 240 | 0.0 | 0.0 | 0.00 | 0.00 | 0.00 | 25 | 1013.4 |
| 20260503191252 | 68 | 282 | 8.0 | 10.0 | 0.00 | 0.00 | 0.00 | 26 | 1013.5 |
| 20260503190748 | 67 | 224 | 7.0 | 9.0 | 0.00 | 0.00 | 0.00 | 25 | 1013.5 |
| 20260503190245 | 67 | 282 | 6.0 | 7.0 | 0.00 | 0.00 | 0.00 | 25 | 1013.6 |
| 20260503185743 | 67 | 230 | 11.0 | 14.0 | 0.00 | 0.00 | 0.00 | 25 | 1013.6 |
| 20260503185238 | 67 | 284 | 7.0 | 8.0 | 0.00 | 0.00 | 0.00 | 26 | 1013.7 |
| 20260503184733 | 67 | 286 | 7.0 | 10.0 | 0.00 | 0.00 | 0.00 | 26 | 1013.7 |
| 20260503184230 | 67 | 272 | 11.0 | 15.0 | 0.00 | 0.00 | 0.00 | 26 | 1013.9 |
| 20260503183726 | 66 | 277 | 7.0 | 9.0 | 0.00 | 0.00 | 0.00 | 26 | 1013.9 |
| 20260503183223 | 65 | 252 | 2.0 | 3.0 | 0.00 | 0.00 | 0.00 | 28 | 1013.9 |
| 20260503182721 | 65 | 280 | 6.0 | 8.0 | 0.00 | 0.00 | 0.00 | 29 | 1014.2 |
| 20260503182220 | 64 | 283 | 5.0 | 6.0 | 0.00 | 0.00 | 0.00 | 29 | 1014.1 |
| 20260503181716 | 64 | 285 | 7.0 | 8.0 | 0.00 | 0.00 | 0.00 | 29 | 1014.2 |
| 20260503181213 | 63 | 286 | 8.0 | 9.0 | 0.00 | 0.00 | 0.00 | 30 | 1014.4 |
| 20260503180709 | 63 | 285 | 5.0 | 7.0 | 0.00 | 0.00 | 0.00 | 31 | 1014.5 |
| 20260503180208 | 63 | 282 | 9.0 | 9.0 | 0.00 | 0.00 | 0.00 | 31 | 1014.6 |
| 20260503175704 | 62 | 281 | 7.0 | 9.0 | 0.00 | 0.00 | 0.00 | 31 | 1014.6 |
| 20260503175202 | 62 | 279 | 3.0 | 3.0 | 0.00 | 0.00 | 0.00 | 32 | 1014.9 |
| 20260503174658 | 62 | 282 | 7.0 | 9.0 | 0.00 | 0.00 | 0.00 | 32 | 1014.7 |
| 20260503174156 | 62 | 314 | 6.0 | 8.0 | 0.00 | 0.00 | 0.00 | 32 | 1014.7 |
| 20260503173650 | 62 | 277 | 4.0 | 5.0 | 0.00 | 0.00 | 0.00 | 33 | 1014.8 |
| 20260503173147 | 61 | 282 | 8.0 | 9.0 | 0.00 | 0.00 | 0.00 | 32 | 1014.6 |
| 20260503172644 | 60 | 271 | 5.0 | 6.0 | 0.00 | 0.00 | 0.00 | 35 | 1014.7 |
| 20260503172141 | 60 | 269 | 3.0 | 3.0 | 0.00 | 0.00 | 0.00 | 35 | 1014.8 |
| 20260503171637 | 59 | 282 | 5.0 | 6.0 | 0.00 | 0.00 | 0.00 | 37 | 1014.9 |
| 20260503171135 | 58 | 274 | 3.0 | 3.0 | 0.00 | 0.00 | 0.00 | 39 | 1015.0 |
| 20260503170632 | 58 | 289 | 5.0 | 6.0 | 0.00 | 0.00 | 0.00 | 39 | 1014.9 |
| 20260503170129 | 57 | 276 | 4.0 | 5.0 | 0.00 | 0.00 | 0.00 | 40 | 1015.0 |
| 20260503150520 | 45 | 257 | 0.0 | 0.0 | 0.00 | 0.00 | 0.00 | 62 | 1016.7 |
| 20260503131413 | 35 | 242 | 0.0 | 0.0 | 0.00 | 0.00 | 0.00 | 83 | 1017.3 |
| 20260503130910 | 35 | 239 | 0.0 | 0.0 | 0.00 | 0.00 | 0.00 | 82 | 1017.2 |
| 20260503130408 | 35 | 232 | 0.0 | 0.0 | 0.00 | 0.00 | 0.00 | 82 | 1017.0 |